This is the latest recevied weather packets stored in our database for station/object N7YET. If no packets are shown the sender has not sent any weather packets the latest 10 day(s).
| Time | Temp. | Humidity | Pressure | Rain* | Wind** | Luminosity | Snow |
|---|---|---|---|---|---|---|---|
| 1777523193 | 3.89° C | 57% | 1231.9 hPa | 0 mm | - | - | - |
| 1777522593 | 4.44° C | 56% | 1231.9 hPa | 0 mm | - | - | - |
| 1777521992 | 4.44° C | 55% | 1231.9 hPa | 0 mm | - | - | - |
| 1777521391 | 4.44° C | 55% | 1231.9 hPa | 0 mm | - | - | - |
| 1777520791 | 4.44° C | 55% | 1231.9 hPa | 0 mm | - | - | - |
| 1777520190 | 4.44° C | 54% | 1231.9 hPa | 0 mm | - | - | - |
| 1777519589 | 4.44° C | 53% | 1231.9 hPa | 0 mm | - | - | - |
| 1777518989 | 5° C | 53% | 1231.9 hPa | 0 mm | - | - | - |
| 1777518388 | 5° C | 52% | 1231.9 hPa | 0 mm | - | - | - |
| 1777517788 | 5.56° C | 51% | 1231.9 hPa | 0 mm | - | - | - |
| 1777517187 | 6.11° C | 50% | 1231.9 hPa | 0 mm | - | - | - |
| 1777516587 | 6.11° C | 50% | 1231.9 hPa | 0 mm | - | - | - |
| 1777515986 | 6.67° C | 50% | 1231.9 hPa | 0 mm | - | - | - |
| 1777515386 | 7.22° C | 48% | 1231.9 hPa | 0 mm | - | - | - |
| 1777514785 | 7.78° C | 49% | 1231.9 hPa | 0 mm | - | - | - |
| 1777514185 | 8.33° C | 50% | 1231.9 hPa | 0 mm | - | - | - |
| 1777513584 | 8.33° C | 50% | 1231.9 hPa | 0 mm | - | - | - |
| 1777512983 | 8.33° C | 53% | 1231.9 hPa | 0 mm | - | - | - |
| 1777512383 | 8.33° C | 53% | 1231.9 hPa | 0 mm | - | - | - |
| 1777511782 | 8.33° C | 53% | 1231.9 hPa | 0 mm | - | - | - |
| 1777511182 | 8.33° C | 52% | 1231.9 hPa | 0 mm | - | - | - |
| 1777510581 | 8.89° C | 51% | 1231.9 hPa | 0 mm | - | - | - |
| 1777509980 | 10° C | 46% | 1231.9 hPa | 0 mm | - | - | - |
| 1777509379 | 10° C | 46% | 1231.9 hPa | 0 mm | - | - | - |
| 1777508779 | 10° C | 46% | 1231.9 hPa | 0 mm | - | - | - |
* Rain latest hour (hover to see other rain measurements)
** Current wind speed in m/s (hover to see current wind gust speed)